Weather in Krotkovo

Russia / Samara Oblast     53°51′29″N   52°07′31″E
temp.,
°C
wind,
m/s
gust,
m/s
humid.,
%
clouds,
%
prec.,
mm/h
press.,
hPa
HPBL,
m
19 september, sun
sun1901:00+2nw22765 0.0 102232
04:00+1nw34895 0.0 102369
07:00+1wnw288730 0.0 1024223
10:00+6nw4662100 0.0 1024878
13:00+10nw55445 0.0 10241325
16:00+11nw45405 0.0 10241424
19:00+6nnw225692 0.0 102423
22:00+4n2264100 0.0 102516
20 september, mon
mon2001:00+4nnw116685 0.0 102511
04:00+2n227252 0.0 102614
07:00+3ne227198 0.0 102624
10:00+8ene335168 0.0 1027624
13:00+11ene324021 0.0 10261165
16:00+12ene3337100 0.0 10251242
19:00+8ene494983 0.0 1026203
22:00+6ene41052100 0.0 1026268
21 september, tue
tue2101:00+6e4952100 0.0 1026315
04:00+6e4952100 0.0 1026305
07:00+6e4854100 0.0 1026305
10:00+8e5644100 0.0 1025475
13:00+11e4538100 0.0 1024497
16:00+11ese4739100 0.0 1023426
19:00+10e3845100 0.0 1023284
22:00+10ese4843100 0.0 1022392
22 september, wed
wed2201:00+9e5959100 0.3 1022263
04:00+8e5116484 0.3 1021262
07:00+10ese41048100 0.0 1021280
10:00+13se5845100 0.0 1022497
13:00+11sse4870100 0.4 1022377
16:00+9se3789100 1.5 1023351
19:00+9se3891100 1.0 1024431
22:00+9ese4885100 2.7 1024341
23 september, thu
thu2301:00+9ese4881100 0.3 1024247
04:00+9ese3972100 0.3 1024226
07:00+9ese3865100 0.0 1024182
10:00+14sse474292 0.0 1025494
13:00+13sse3744100 0.0 1025202
16:00+13se3842100 0.0 1025269
19:00+13se3940100 0.0 1025251
22:00+11s1250100 0.1 102638